TimeEST,TemperatureF,Dew PointF,Humidity,Sea Level PressureIn,VisibilityMPH,Wind Direction,Wind SpeedMPH,Gust SpeedMPH,PrecipitationIn,Events,Conditions,WindDirDegrees,DateUTC
12:52 AM,46.0,28.9,51,29.94,10.0,SW,12.7,20.7,N/A,,Clear,230,2013-01-20 05:52:00
1:52 AM,46.0,30.0,54,29.95,10.0,WSW,10.4,23.0,N/A,,Clear,240,2013-01-20 06:52:00
2:52 AM,45.0,32.0,60,29.96,10.0,WSW,11.5,18.4,N/A,,Clear,240,2013-01-20 07:52:00
3:52 AM,44.1,34.0,68,29.99,10.0,West,17.3,23.0,N/A,,Clear,270,2013-01-20 08:52:00
4:52 AM,42.1,30.0,62,30.02,10.0,WNW,27.6,35.7,N/A,,Scattered Clouds,290,2013-01-20 09:52:00
5:52 AM,39.0,28.9,67,30.04,10.0,WNW,17.3,-,N/A,,Partly Cloudy,290,2013-01-20 10:52:00
6:52 AM,34.0,19.0,54,30.09,10.0,WNW,18.4,-,N/A,,Clear,290,2013-01-20 11:52:00
7:52 AM,30.9,12.0,46,30.13,10.0,WNW,10.4,-,N/A,,Clear,300,2013-01-20 12:52:00
8:52 AM,30.0,7.0,38,30.17,10.0,WNW,21.9,-,N/A,,Scattered Clouds,300,2013-01-20 13:52:00
10:52 AM,30.9,12.0,46,30.23,10.0,NW,10.4,-,N/A,,Scattered Clouds,310,2013-01-20 15:52:00
11:52 AM,33.1,14.0,46,30.24,10.0,WNW,10.4,-,N/A,,Mostly Cloudy,300,2013-01-20 16:52:00
12:52 PM,33.1,10.0,38,30.21,10.0,WNW,10.4,-,N/A,,Scattered Clouds,290,2013-01-20 17:52:00
1:52 PM,34.0,10.9,38,30.20,10.0,NNW,5.8,-,N/A,,Mostly Cloudy,330,2013-01-20 18:52:00
2:52 PM,34.0,10.9,38,30.19,10.0,West,6.9,-,N/A,,Scattered Clouds,280,2013-01-20 19:52:00
3:52 PM,33.1,8.1,35,30.18,10.0,West,5.8,-,N/A,,Scattered Clouds,260,2013-01-20 20:52:00
4:52 PM,34.0,7.0,32,30.20,10.0,WNW,10.4,-,N/A,,Mostly Cloudy,300,2013-01-20 21:52:00
5:52 PM,32.0,10.0,40,30.22,10.0,WNW,9.2,-,N/A,,Mostly Cloudy,290,2013-01-20 22:52:00
6:52 PM,30.9,9.0,40,30.22,10.0,NW,11.5,-,N/A,,Overcast,320,2013-01-20 23:52:00
7:52 PM,30.0,9.0,41,30.22,10.0,NW,10.4,-,N/A,,Overcast,320,2013-01-21 00:52:00
8:52 PM,28.9,10.0,45,30.21,10.0,NW,8.1,-,N/A,,Overcast,310,2013-01-21 01:52:00
9:52 PM,27.0,12.0,53,30.20,10.0,NW,5.8,-,N/A,,Mostly Cloudy,320,2013-01-21 02:52:00
10:52 PM,27.0,10.9,51,30.20,10.0,NW,8.1,-,N/A,,Overcast,310,2013-01-21 03:52:00
11:52 PM,27.0,12.0,53,30.19,10.0,NW,6.9,-,N/A,,Overcast,310,2013-01-21 04:52:00